TimeMST,TemperatureF,Dew PointF,Humidity,Sea Level PressureIn,VisibilityMPH,Wind Direction,Wind SpeedMPH,Gust SpeedMPH,PrecipitationIn,Events,Conditions,WindDirDegrees,DateUTC
12:53 AM,17.1,10.0,74,29.74,5.0,NNE,13.8,-,0.00,Snow,Light Snow,30,2013-01-11 07:53:00
1:53 AM,15.1,8.1,74,29.79,6.0,NNE,10.4,-,0.00,Snow,Light Snow,30,2013-01-11 08:53:00
2:37 AM,12.9,7.0,77,29.70,2.0,NNE,15.0,-,0.00,Snow,Light Snow,30,2013-01-11 09:37:00
2:53 AM,12.9,8.1,81,29.82,1.5,NNE,13.8,-,0.00,Snow,Light Snow,30,2013-01-11 09:53:00
3:22 AM,12.0,8.1,84,29.71,1.2,NNE,11.5,-,0.00,Snow,Light Snow,20,2013-01-11 10:22:00
3:44 AM,12.0,8.1,84,29.71,0.8,NNE,9.2,-,0.02,Snow,Light Snow,30,2013-01-11 10:44:00
3:53 AM,12.0,8.1,84,29.84,0.8,NE,9.2,-,0.03,Snow,Light Snow,40,2013-01-11 10:53:00
4:46 AM,10.9,8.1,88,29.71,0.8,ENE,10.4,-,0.03,Snow,Light Snow,60,2013-01-11 11:46:00
4:53 AM,10.9,8.1,88,29.86,0.8,ENE,9.2,-,0.03,Snow,Light Snow,60,2013-01-11 11:53:00
6:27 AM,10.0,6.1,84,29.75,0.8,NNE,13.8,-,0.01,Snow,Light Snow,30,2013-01-11 13:27:00
6:53 AM,10.0,7.0,87,29.91,0.8,NNE,8.1,-,0.02,Snow,Light Snow,30,2013-01-11 13:53:00
6:56 AM,10.0,7.0,87,29.76,1.0,NNE,8.1,-,0.00,Snow,Light Snow,20,2013-01-11 13:56:00
7:53 AM,10.0,6.1,84,29.95,1.0,North,10.4,-,0.02,Snow,Light Snow,350,2013-01-11 14:53:00
8:53 AM,10.0,7.0,87,29.96,1.0,NW,4.6,-,0.02,Snow,Light Snow,320,2013-01-11 15:53:00
9:53 AM,10.9,6.1,81,29.94,1.0,NNE,6.9,-,0.02,Snow,Light Snow,20,2013-01-11 16:53:00
10:36 AM,10.9,6.1,81,29.82,0.8,NNE,5.8,-,0.01,Snow,Light Snow,20,2013-01-11 17:36:00
10:44 AM,10.9,7.0,84,29.82,0.5,West,5.8,-,0.01,Fog-Snow,Snow,270,2013-01-11 17:44:00
10:53 AM,10.9,5.0,77,29.99,1.0,North,5.8,-,0.01,Snow,Light Snow,10,2013-01-11 17:53:00
11:15 AM,10.0,5.0,80,29.84,0.5,WNW,9.2,-,0.01,Snow,Snow,290,2013-01-11 18:15:00
11:33 AM,10.0,5.0,80,29.83,1.0,NW,10.4,-,0.02,Snow,Light Snow,320,2013-01-11 18:33:00
11:39 AM,10.0,5.0,80,29.83,0.8,North,11.5,-,0.02,Snow,Light Snow,350,2013-01-11 18:39:00
11:53 AM,10.4,5.0,79,29.83,0.5,North,11.5,-,N/A,Snow,Snow,360,2013-01-11 18:53:00
12:10 PM,9.0,5.0,84,29.83,0.8,North,10.4,-,0.01,Snow,Light Snow,360,2013-01-11 19:10:00
12:12 PM,9.0,5.0,84,29.83,1.5,North,10.4,-,0.01,Snow,Light Snow,360,2013-01-11 19:12:00
12:20 PM,10.0,5.0,80,29.83,1.5,North,8.1,-,0.01,Snow,Light Snow,360,2013-01-11 19:20:00
12:24 PM,10.0,5.0,80,29.83,2.0,North,10.4,-,0.01,Snow,Light Snow,350,2013-01-11 19:24:00
12:53 PM,10.4,5.0,79,29.85,1.5,North,9.2,-,N/A,Snow,Light Snow,10,2013-01-11 19:53:00
1:11 PM,10.0,5.0,80,29.86,1.0,North,11.5,-,0.00,Snow,Light Snow,10,2013-01-11 20:11:00
1:53 PM,10.0,5.0,80,30.04,1.0,North,10.4,-,0.00,Snow,Light Snow,360,2013-01-11 20:53:00
2:00 PM,10.0,3.9,76,29.87,0.8,North,12.7,-,0.00,Snow,Light Snow,360,2013-01-11 21:00:00
2:26 PM,9.0,5.0,84,29.88,1.0,North,10.4,-,0.01,Snow,Light Snow,350,2013-01-11 21:26:00
2:53 PM,9.0,3.9,80,30.09,1.0,North,12.7,-,0.01,Snow,Light Snow,350,2013-01-11 21:53:00
3:53 PM,9.0,5.0,84,30.12,0.8,NW,8.1,-,0.01,Snow,Light Snow,320,2013-01-11 22:53:00
4:25 PM,9.0,5.0,84,29.95,1.0,NNW,5.8,-,0.02,Snow,Light Snow,340,2013-01-11 23:25:00
4:35 PM,9.0,5.0,84,29.95,1.0,NNW,5.8,-,0.02,Snow,Light Snow,340,2013-01-11 23:35:00
4:53 PM,9.0,5.0,84,30.15,1.2,NNW,5.8,-,0.02,Snow,Light Snow,330,2013-01-11 23:53:00
5:15 PM,9.0,6.1,88,29.97,1.8,NNW,8.1,-,0.01,Snow,Light Snow,330,2013-01-12 00:15:00
5:53 PM,9.0,3.9,80,30.19,1.8,North,16.1,-,0.01,Snow,Light Snow,350,2013-01-12 00:53:00
6:08 PM,9.0,3.9,80,30.00,1.5,North,12.7,-,0.01,Snow,Light Snow,350,2013-01-12 01:08:00
6:53 PM,9.0,5.0,84,30.22,1.5,NNW,11.5,-,0.02,Snow,Light Snow,330,2013-01-12 01:53:00
7:06 PM,9.0,3.9,80,30.03,4.0,NNW,11.5,-,0.00,Snow,Light Snow,340,2013-01-12 02:06:00
7:41 PM,8.1,3.0,80,30.03,2.5,North,13.8,-,0.00,Snow,Light Snow,350,2013-01-12 02:41:00
7:53 PM,8.1,3.0,80,30.24,4.0,North,12.7,-,0.00,Snow,Light Snow,350,2013-01-12 02:53:00
8:11 PM,8.1,3.0,80,30.04,2.5,NNW,15.0,-,0.00,Snow,Light Snow,340,2013-01-12 03:11:00
8:53 PM,8.1,3.9,83,30.25,2.0,NNW,15.0,-,0.00,Snow,Light Snow,340,2013-01-12 03:53:00
9:05 PM,8.1,3.9,83,30.05,1.8,NNW,11.5,-,0.00,Snow,Light Snow,340,2013-01-12 04:05:00
9:32 PM,9.0,3.9,80,30.05,3.0,NW,8.1,-,0.01,Snow,Light Snow,320,2013-01-12 04:32:00
9:53 PM,8.1,3.9,83,30.25,2.0,WNW,8.1,-,0.02,Snow,Light Snow,300,2013-01-12 04:53:00
10:53 PM,7.0,3.0,84,30.26,3.0,WNW,8.1,-,0.01,Snow,Light Snow,290,2013-01-12 05:53:00
11:03 PM,7.0,3.0,84,30.06,2.0,West,8.1,-,0.00,Snow,Light Snow,280,2013-01-12 06:03:00
11:53 PM,7.0,3.9,87,30.27,2.0,WSW,5.8,-,0.01,Snow,Light Snow,240,2013-01-12 06:53:00